Weather History for KCSV - November, 2013

Change the Weather History Date:

Wednesday, November 6, 2013

  Actual Average Record
Temperature  
Mean Temperature 58 °F 51 °F  
Max Temperature 64 °F 61 °F 73 °F (1978)
Min Temperature 52 °F 41 °F 19 °F (1967)
Degree Days  
Heating Degree Days 7    
Month to date heating degree days  
Since 1 July heating degree days  
Cooling Degree Days 0    
Month to date cooling degree days  
Year to date cooling degree days  
Growing Degree Days 8 (Base 50)    
Moisture  
Dew Point 51 °F    
Average Humidity 75    
Maximum Humidity 94    
Minimum Humidity 54    
Precipitation  
Precipitation 0.26 in 0.14 in 0.94 in (1995)
Month to date precipitation 0.84  
Year to date precipitation 45.88  
Sea Level Pressure  
Sea Level Pressure 30.17 in    
Wind  
Wind Speed 7 mph (South)    
Max Wind Speed 14 mph    
Max Gust Speed 28 mph    
Visibility 9 miles    
Events Rain    
T = Trace of Precipitation, MM = Missing Value Source: NWS Daily Summary

Daily Weather History Graph

Daily Weather History Graph

Search for Another Location

Airport or City:

Trip Planner

Search our weather history database for the weather conditions in past years. The results will help you decide how hot, cold, wet, or windy it might be!

Date:

Astronomy

Nov. 06, 2013 Rise Set
Actual Time 6:07 AM CST 4:39 PM CST
Civil Twilight 5:41 AM CST 5:06 PM CST
Nautical Twilight 5:10 AM CST 5:36 PM CST
Astronomical Twilight 4:40 AM CST 6:06 PM CST
Moon 9:19 AM CST (11/6) 7:45 PM CST (11/6)
Length of Visible Light 11h 25m
Length of Day
10h 31m
Waxing Crescent, 14% of the Moon is Illuminated
Nov 6
Waxing Crescent
Nov 9
First Quarter
Nov 17
Full
Nov 25
Last Quarter
Dec 2
New

Hourly Weather History & Observations

Time (CST) Temp. Dew Point Humidity Pressure Visibility Wind Dir Wind Speed Gust Speed Precip Events Conditions
12:53 AM 52.0 °F 37.9 °F 59% 30.27 in 10.0 mi SSE 4.6 mph - N/A   Clear
1:53 AM 52.0 °F 37.0 °F 57% 30.25 in 10.0 mi South 6.9 mph - N/A   Partly Cloudy
2:53 AM 52.0 °F 36.0 °F 54% 30.24 in 10.0 mi South 6.9 mph - N/A   Clear
3:41 AM 53.6 °F 37.4 °F 54% 30.26 in 10.0 mi SSE 8.1 mph - N/A   Mostly Cloudy
3:53 AM 54.0 °F 39.0 °F 57% 30.24 in 10.0 mi South 6.9 mph - N/A   Mostly Cloudy
4:53 AM 55.0 °F 43.0 °F 64% 30.23 in 10.0 mi Variable 4.6 mph - N/A   Overcast
5:48 AM 53.6 °F 46.4 °F 77% 30.23 in 10.0 mi Variable 3.5 mph - N/A   Overcast
5:53 AM 54.0 °F 48.0 °F 80% 30.22 in 10.0 mi South 8.1 mph - N/A   Overcast
6:08 AM 55.4 °F 48.2 °F 77% 30.24 in 10.0 mi Variable 4.6 mph - N/A   Overcast
6:33 AM 55.4 °F 48.2 °F 77% 30.25 in 10.0 mi WSW 3.5 mph - N/A   Overcast
6:53 AM 55.0 °F 48.9 °F 80% 30.23 in 10.0 mi SSW 4.6 mph - N/A   Overcast
7:32 AM 57.2 °F 51.8 °F 82% 30.25 in 10.0 mi SSE 9.2 mph - N/A   Overcast
7:53 AM 57.9 °F 52.0 °F 81% 30.24 in 10.0 mi South 8.1 mph - N/A   Overcast
8:53 AM 60.1 °F 54.0 °F 80% 30.23 in 10.0 mi South 12.7 mph 19.6 mph 0.00 in   Overcast
9:05 AM 60.8 °F 53.6 °F 77% 30.25 in 10.0 mi South 8.1 mph 27.6 mph N/A   Overcast
9:35 AM 60.8 °F 53.6 °F 77% 30.25 in 10.0 mi South 8.1 mph 23.0 mph N/A   Overcast
9:43 AM 62.6 °F 53.6 °F 72% 30.24 in 10.0 mi South 10.4 mph 20.7 mph N/A   Overcast
9:53 AM 61.0 °F 52.0 °F 72% 30.22 in 10.0 mi South 13.8 mph 24.2 mph N/A   Mostly Cloudy
10:53 AM 64.0 °F 53.1 °F 67% 30.20 in 10.0 mi South 13.8 mph 24.2 mph N/A   Mostly Cloudy
11:08 AM 64.4 °F 53.6 °F 68% 30.23 in 10.0 mi South 9.2 mph 24.2 mph N/A   Mostly Cloudy
11:53 AM 64.0 °F 53.1 °F 67% 30.18 in 10.0 mi South 13.8 mph 27.6 mph N/A   Mostly Cloudy
12:15 PM 64.4 °F 53.6 °F 68% 30.19 in 10.0 mi South 10.4 mph 24.2 mph N/A   Scattered Clouds
12:53 PM 64.9 °F 54.0 °F 68% 30.14 in 10.0 mi South 8.1 mph 20.7 mph N/A   Mostly Cloudy
1:53 PM 64.9 °F 54.0 °F 68% 30.13 in 10.0 mi Variable 6.9 mph 20.7 mph N/A   Overcast
2:50 PM 64.4 °F 53.6 °F 68% 30.14 in 10.0 mi Variable 5.8 mph - N/A   Mostly Cloudy
2:53 PM 64.9 °F 54.0 °F 68% 30.12 in 10.0 mi Variable 6.9 mph - N/A   Mostly Cloudy
3:53 PM 64.9 °F 54.0 °F 68% 30.10 in 10.0 mi South 8.1 mph 20.7 mph N/A   Mostly Cloudy
4:53 PM 63.0 °F 54.0 °F 72% 30.09 in 10.0 mi South 9.2 mph - N/A   Clear
5:53 PM 62.1 °F 54.0 °F 75% 30.09 in 10.0 mi South 9.2 mph - N/A   Partly Cloudy
6:53 PM 63.0 °F 54.0 °F 72% 30.08 in 10.0 mi South 6.9 mph 17.3 mph N/A   Overcast
7:53 PM 62.1 °F 55.9 °F 80% 30.08 in 10.0 mi Variable 5.8 mph - 0.00 in   Overcast
8:53 PM 61.0 °F 55.9 °F 83% 30.08 in 10.0 mi South 4.6 mph - N/A   Overcast
9:53 PM 60.1 °F 57.0 °F 90% 30.07 in 4.0 mi Variable 4.6 mph - 0.04 in Rain Light Rain
10:23 PM 60.8 °F 57.2 °F 88% 30.10 in 4.0 mi SSW 8.1 mph - 0.01 in   Overcast
10:53 PM 59.0 °F 57.0 °F 93% 30.06 in 4.0 mi South 6.9 mph - 0.02 in   Overcast
11:06 PM 59.0 °F 57.2 °F 94% 30.10 in 2.5 mi Variable 3.5 mph - 0.01 in Rain Light Rain
11:22 PM 59.0 °F 57.2 °F 94% 30.11 in 1.0 mi West 9.2 mph - 0.14 in Rain Heavy Rain
11:34 PM 59.0 °F 57.2 °F 94% 30.11 in 2.5 mi Variable 6.9 mph - 0.19 in Rain Rain
11:42 PM 57.2 °F 55.4 °F 94% 30.11 in 3.0 mi West 6.9 mph - 0.19 in Rain Light Rain
11:53 PM 57.9 °F 55.9 °F 93% 30.07 in 3.0 mi Variable 3.5 mph - 0.20 in Rain Light Rain